Time,TemperatureF,DewpointF,PressureIn,WindDirection,WindDirectionDegrees,WindSpeedMPH,WindSpeedGustMPH,Humidity,HourlyPrecipIn,Conditions,Clouds,dailyrainin,SoftwareType,DateUTC
2013-01-12 00:13:00,49.8,47.0,30.19,NE,50,0.0,0.0,90,0.00,,,0.00,weatherlink.com 1.10,2013-01-12 05:13:00,
2013-01-12 00:28:00,49.7,47.0,30.18,NE,51,0.0,1.0,90,0.00,,,0.00,weatherlink.com 1.10,2013-01-12 05:28:00,
2013-01-12 00:43:00,49.6,47.0,30.18,NE,51,0.0,0.0,90,0.00,,,0.00,weatherlink.com 1.10,2013-01-12 05:43:00,
2013-01-12 00:58:00,49.6,47.0,30.18,NE,50,0.0,0.0,90,0.00,,,0.00,weatherlink.com 1.10,2013-01-12 05:58:00,
2013-01-12 01:13:00,49.7,47.0,30.18,NE,51,0.0,1.0,90,0.00,,,0.00,weatherlink.com 1.10,2013-01-12 06:13:00,
2013-01-12 01:28:00,49.7,47.0,30.18,NE,51,0.0,0.0,90,0.00,,,0.00,weatherlink.com 1.10,2013-01-12 06:28:00,
2013-01-12 01:43:00,49.8,47.0,30.18,NE,50,0.0,1.0,90,0.00,,,0.00,weatherlink.com 1.10,2013-01-12 06:43:00,
2013-01-12 01:58:00,49.9,47.0,30.18,NW,320,0.0,2.0,90,0.00,,,0.00,weatherlink.com 1.10,2013-01-12 06:58:00,
2013-01-12 02:13:00,49.9,47.0,30.18,NW,320,0.0,0.0,90,0.00,,,0.00,weatherlink.com 1.10,2013-01-12 07:13:00,
2013-01-12 02:28:00,49.8,47.0,30.18,NW,320,0.0,0.0,90,0.00,,,0.00,weatherlink.com 1.10,2013-01-12 07:28:00,
2013-01-12 02:43:00,49.8,47.0,30.18,NW,320,0.0,0.0,90,0.00,,,0.00,weatherlink.com 1.10,2013-01-12 07:43:00,
2013-01-12 02:58:00,49.8,47.0,30.18,NW,320,0.0,0.0,90,0.00,,,0.00,weatherlink.com 1.10,2013-01-12 07:58:00,
2013-01-12 03:13:00,49.8,47.0,30.18,North,360,0.0,1.0,90,0.00,,,0.00,weatherlink.com 1.10,2013-01-12 08:13:00,
2013-01-12 03:28:00,49.9,47.0,30.17,NW,320,0.0,0.0,90,0.00,,,0.00,weatherlink.com 1.10,2013-01-12 08:28:00,
2013-01-12 03:43:00,49.9,47.0,30.17,NW,320,0.0,0.0,90,0.00,,,0.00,weatherlink.com 1.10,2013-01-12 08:43:00,
2013-01-12 03:58:00,49.9,47.0,30.17,NW,320,0.0,0.0,90,0.00,,,0.00,weatherlink.com 1.10,2013-01-12 08:58:00,
2013-01-12 04:13:00,50.0,47.0,30.16,NW,320,0.0,0.0,90,0.00,,,0.00,weatherlink.com 1.10,2013-01-12 09:13:00,
2013-01-12 04:28:00,50.1,47.0,30.16,NW,320,0.0,0.0,90,0.00,,,0.00,weatherlink.com 1.10,2013-01-12 09:28:00,
2013-01-12 04:43:00,50.1,47.0,30.16,North,360,0.0,0.0,90,0.00,,,0.00,weatherlink.com 1.10,2013-01-12 09:43:00,
2013-01-12 04:58:00,50.2,47.0,30.16,NW,320,0.0,0.0,90,0.00,,,0.00,weatherlink.com 1.10,2013-01-12 09:58:00,
2013-01-12 05:13:00,50.3,48.0,30.15,North,360,0.0,0.0,90,0.00,,,0.00,weatherlink.com 1.10,2013-01-12 10:13:00,
2013-01-12 05:28:00,50.4,48.0,30.15,NW,321,0.0,0.0,90,0.00,,,0.00,weatherlink.com 1.10,2013-01-12 10:28:00,
2013-01-12 05:43:00,50.6,48.0,30.15,NW,320,0.0,0.0,90,0.00,,,0.00,weatherlink.com 1.10,2013-01-12 10:43:00,
2013-01-12 05:58:00,50.9,48.0,30.15,NW,320,0.0,0.0,90,0.00,,,0.00,weatherlink.com 1.10,2013-01-12 10:58:00,
2013-01-12 06:13:00,51.1,48.0,30.16,NW,320,0.0,0.0,90,0.00,,,0.00,weatherlink.com 1.10,2013-01-12 11:13:00,
2013-01-12 06:28:00,51.1,48.0,30.16,North,360,0.0,0.0,90,0.00,,,0.00,weatherlink.com 1.10,2013-01-12 11:28:00,
2013-01-12 06:43:00,51.5,49.0,30.16,North,360,0.0,0.0,90,0.00,,,0.00,weatherlink.com 1.10,2013-01-12 11:43:00,
2013-01-12 06:58:00,52.1,49.0,30.17,North,360,0.0,0.0,90,0.00,,,0.00,weatherlink.com 1.10,2013-01-12 11:58:00,
2013-01-12 07:13:00,52.2,49.0,30.17,NW,321,0.0,0.0,90,0.00,,,0.00,weatherlink.com 1.10,2013-01-12 12:13:00,
2013-01-12 07:28:00,52.1,49.0,30.17,NW,320,0.0,0.0,90,0.00,,,0.00,weatherlink.com 1.10,2013-01-12 12:28:00,
2013-01-12 07:44:00,52.2,49.0,30.18,NW,321,0.0,0.0,90,0.00,,,0.00,weatherlink.com 1.10,2013-01-12 12:44:00,
2013-01-12 07:59:00,52.4,50.0,30.18,North,360,0.0,0.0,90,0.00,,,0.00,weatherlink.com 1.10,2013-01-12 12:59:00,
2013-01-12 08:14:00,53.0,50.0,30.18,NW,320,0.0,1.0,90,0.00,,,0.00,weatherlink.com 1.10,2013-01-12 13:14:00,
2013-01-12 08:29:00,53.6,51.0,30.18,NW,320,0.0,1.0,90,0.00,,,0.00,weatherlink.com 1.10,2013-01-12 13:29:00,
2013-01-12 08:44:00,54.1,51.0,30.19,North,360,0.0,2.0,90,0.00,,,0.00,weatherlink.com 1.10,2013-01-12 13:44:00,
2013-01-12 08:59:00,54.8,52.0,30.19,West,273,0.0,2.0,90,0.00,,,0.00,weatherlink.com 1.10,2013-01-12 13:59:00,
2013-01-12 09:14:00,55.3,53.0,30.19,West,270,1.0,1.0,90,0.00,,,0.00,weatherlink.com 1.10,2013-01-12 14:14:00,
2013-01-12 09:29:00,56.1,53.0,30.19,SE,144,0.0,2.0,90,0.00,,,0.00,weatherlink.com 1.10,2013-01-12 14:29:00,
2013-01-12 09:44:00,56.7,54.0,30.19,SE,144,0.0,2.0,91,0.00,,,0.00,weatherlink.com 1.10,2013-01-12 14:44:00,
2013-01-12 09:59:00,57.1,55.0,30.20,WSW,252,0.0,2.0,91,0.00,,,0.00,weatherlink.com 1.10,2013-01-12 14:59:00,
2013-01-12 10:14:00,56.9,54.0,30.20,West,261,0.0,2.0,91,0.00,,,0.00,weatherlink.com 1.10,2013-01-12 15:14:00,
2013-01-12 10:29:00,56.8,54.0,30.20,West,260,0.0,1.0,91,0.00,,,0.00,weatherlink.com 1.10,2013-01-12 15:29:00,
2013-01-12 10:44:00,56.7,54.0,30.19,West,260,0.0,1.0,91,0.00,,,0.00,weatherlink.com 1.10,2013-01-12 15:44:00,
2013-01-12 10:59:00,56.8,54.0,30.19,West,260,0.0,1.0,91,0.00,,,0.00,weatherlink.com 1.10,2013-01-12 15:59:00,
2013-01-12 11:14:00,57.0,55.0,30.18,West,261,0.0,1.0,91,0.00,,,0.00,weatherlink.com 1.10,2013-01-12 16:14:00,
2013-01-12 11:29:00,57.3,55.0,30.18,West,260,0.0,1.0,91,0.00,,,0.00,weatherlink.com 1.10,2013-01-12 16:29:00,
2013-01-12 11:44:00,57.6,55.0,30.17,West,260,0.0,1.0,91,0.00,,,0.00,weatherlink.com 1.10,2013-01-12 16:44:00,
2013-01-12 11:59:00,58.2,56.0,30.16,West,260,0.0,1.0,91,0.00,,,0.00,weatherlink.com 1.10,2013-01-12 16:59:00,
2013-01-12 12:14:00,59.2,57.0,30.16,South,180,1.0,5.0,91,0.00,,,0.00,weatherlink.com 1.10,2013-01-12 17:14:00,
2013-01-12 12:29:00,59.8,57.0,30.16,SSE,166,0.0,3.0,91,0.00,,,0.00,weatherlink.com 1.10,2013-01-12 17:29:00,
2013-01-12 12:44:00,60.5,57.0,30.15,SE,132,0.0,5.0,89,0.00,,,0.00,weatherlink.com 1.10,2013-01-12 17:44:00,
2013-01-12 12:59:00,60.9,57.0,30.14,SE,132,0.0,1.0,88,0.00,,,0.00,weatherlink.com 1.10,2013-01-12 17:59:00,
2013-01-12 13:14:00,61.6,58.0,30.15,SE,133,0.0,2.0,87,0.00,,,0.00,weatherlink.com 1.10,2013-01-12 18:14:00,
2013-01-12 13:29:00,63.0,59.0,30.14,SE,133,1.0,2.0,85,0.00,,,0.00,weatherlink.com 1.10,2013-01-12 18:29:00,
2013-01-12 13:44:00,64.2,59.0,30.14,SE,132,0.0,1.0,83,0.00,,,0.00,weatherlink.com 1.10,2013-01-12 18:44:00,
2013-01-12 13:59:00,64.8,59.0,30.14,SSE,153,0.0,2.0,82,0.00,,,0.00,weatherlink.com 1.10,2013-01-12 18:59:00,
2013-01-12 14:14:00,65.8,60.0,30.14,SSE,163,0.0,2.0,81,0.00,,,0.00,weatherlink.com 1.10,2013-01-12 19:14:00,
2013-01-12 14:29:00,66.6,60.0,30.14,SSE,163,0.0,1.0,79,0.00,,,0.00,weatherlink.com 1.10,2013-01-12 19:29:00,
2013-01-12 14:44:00,67.0,60.0,30.14,SSE,161,0.0,1.0,78,0.00,,,0.00,weatherlink.com 1.10,2013-01-12 19:44:00,
2013-01-12 14:59:00,67.4,60.0,30.14,SSE,162,0.0,0.0,78,0.00,,,0.00,weatherlink.com 1.10,2013-01-12 19:59:00,
2013-01-12 15:14:00,67.6,60.0,30.14,SSE,160,0.0,2.0,77,0.00,,,0.00,weatherlink.com 1.10,2013-01-12 20:14:00,
2013-01-12 15:29:00,67.7,60.0,30.14,SSE,160,0.0,1.0,77,0.00,,,0.00,weatherlink.com 1.10,2013-01-12 20:29:00,
2013-01-12 15:44:00,67.5,60.0,30.14,SSE,161,0.0,1.0,77,0.00,,,0.00,weatherlink.com 1.10,2013-01-12 20:44:00,
2013-01-12 15:59:00,67.3,60.0,30.14,SSE,160,0.0,1.0,78,0.00,,,0.00,weatherlink.com 1.10,2013-01-12 20:59:00,
2013-01-12 16:14:00,67.1,60.0,30.14,SSE,159,0.0,1.0,78,0.00,,,0.00,weatherlink.com 1.10,2013-01-12 21:14:00,
2013-01-12 16:30:00,66.8,60.0,30.14,SSE,159,0.0,0.0,79,0.00,,,0.00,weatherlink.com 1.10,2013-01-12 21:30:00,
2013-01-12 16:45:00,66.5,60.0,30.14,SSE,160,0.0,1.0,79,0.00,,,0.00,weatherlink.com 1.10,2013-01-12 21:45:00,
2013-01-12 17:00:00,66.0,60.0,30.14,SSE,160,0.0,0.0,80,0.00,,,0.00,weatherlink.com 1.10,2013-01-12 22:00:00,
2013-01-12 17:15:00,65.4,59.0,30.14,SSE,160,0.0,0.0,81,0.00,,,0.00,weatherlink.com 1.10,2013-01-12 22:15:00,
2013-01-12 17:30:00,64.7,59.0,30.14,SSE,161,0.0,0.0,81,0.00,,,0.00,weatherlink.com 1.10,2013-01-12 22:30:00,
2013-01-12 17:45:00,64.1,59.0,30.14,SSE,159,0.0,1.0,82,0.00,,,0.00,weatherlink.com 1.10,2013-01-12 22:45:00,
2013-01-12 18:00:00,63.6,58.0,30.14,SSE,160,0.0,0.0,83,0.00,,,0.00,weatherlink.com 1.10,2013-01-12 23:00:00,
2013-01-12 18:15:00,63.1,58.0,30.14,SSE,161,0.0,0.0,84,0.00,,,0.00,weatherlink.com 1.10,2013-01-12 23:15:00,
2013-01-12 18:30:00,62.7,58.0,30.14,SSE,160,0.0,0.0,84,0.00,,,0.00,weatherlink.com 1.10,2013-01-12 23:30:00,
2013-01-12 18:45:00,62.3,58.0,30.14,SSE,160,0.0,0.0,85,0.00,,,0.00,weatherlink.com 1.10,2013-01-12 23:45:00,
2013-01-12 19:00:00,61.9,57.0,30.13,SSE,159,0.0,0.0,85,0.00,,,0.00,weatherlink.com 1.10,2013-01-13 00:00:00,
2013-01-12 19:15:00,61.6,57.0,30.13,SSE,160,0.0,0.0,86,0.00,,,0.00,weatherlink.com 1.10,2013-01-13 00:15:00,
2013-01-12 19:30:00,61.3,57.0,30.13,SSE,159,0.0,1.0,86,0.00,,,0.00,weatherlink.com 1.10,2013-01-13 00:30:00,
2013-01-12 19:45:00,61.0,57.0,30.13,SSE,160,0.0,0.0,86,0.00,,,0.00,weatherlink.com 1.10,2013-01-13 00:45:00,
2013-01-12 20:00:00,60.5,57.0,30.13,SSE,159,0.0,1.0,87,0.00,,,0.00,weatherlink.com 1.10,2013-01-13 01:00:00,
2013-01-12 20:15:00,60.3,57.0,30.13,SSE,159,0.0,1.0,87,0.00,,,0.00,weatherlink.com 1.10,2013-01-13 01:15:00,
2013-01-12 20:30:00,60.1,57.0,30.14,SSE,160,0.0,1.0,88,0.00,,,0.00,weatherlink.com 1.10,2013-01-13 01:30:00,
2013-01-12 20:45:00,60.0,57.0,30.14,SSE,160,0.0,1.0,88,0.00,,,0.00,weatherlink.com 1.10,2013-01-13 01:45:00,
2013-01-12 21:00:00,59.7,56.0,30.14,SSE,159,0.0,0.0,88,0.00,,,0.00,weatherlink.com 1.10,2013-01-13 02:00:00,
2013-01-12 21:15:00,59.6,56.0,30.14,SSE,160,0.0,0.0,88,0.00,,,0.00,weatherlink.com 1.10,2013-01-13 02:15:00,
2013-01-12 21:30:00,59.5,56.0,30.13,SSE,159,0.0,1.0,88,0.00,,,0.00,weatherlink.com 1.10,2013-01-13 02:30:00,
2013-01-12 21:45:00,59.4,56.0,30.14,SSE,159,0.0,0.0,88,0.00,,,0.00,weatherlink.com 1.10,2013-01-13 02:45:00,
2013-01-12 22:00:00,59.2,56.0,30.14,SSE,161,0.0,0.0,89,0.00,,,0.00,weatherlink.com 1.10,2013-01-13 03:00:00,
2013-01-12 22:15:00,59.1,56.0,30.14,SSE,159,0.0,1.0,89,0.00,,,0.00,weatherlink.com 1.10,2013-01-13 03:15:00,
2013-01-12 22:30:00,59.0,56.0,30.14,SSE,160,0.0,1.0,89,0.00,,,0.00,weatherlink.com 1.10,2013-01-13 03:30:00,
2013-01-12 22:45:00,58.7,56.0,30.14,SSE,160,0.0,1.0,89,0.00,,,0.00,weatherlink.com 1.10,2013-01-13 03:45:00,
2013-01-12 23:00:00,58.5,55.0,30.14,SSE,159,0.0,2.0,89,0.00,,,0.00,weatherlink.com 1.10,2013-01-13 04:00:00,
2013-01-12 23:15:00,58.3,55.0,30.14,SSE,159,0.0,1.0,89,0.00,,,0.00,weatherlink.com 1.10,2013-01-13 04:15:00,
2013-01-12 23:30:00,58.2,55.0,30.14,SSE,160,0.0,1.0,89,0.00,,,0.00,weatherlink.com 1.10,2013-01-13 04:30:00,
2013-01-12 23:45:00,58.0,55.0,30.13,SSE,161,0.0,1.0,89,0.00,,,0.00,weatherlink.com 1.10,2013-01-13 04:45:00,